Winona, MN

10:25 PM CDT on October 15, 2019 (GMT -0500)
Winona Municipal-Conrad

Weather History for KONA - September, 2019

Change the Weather History Date:

Tuesday, September 17, 2019

  Actual Average Record
Temperature  
Mean Temperature 76 °F -  
Max Temperature 84 °F 73 °F 89 °F (2018)
Min Temperature 69 °F 52 °F 41 °F (2012)
Cooling Degree Days 12    
Growing Degree Days 26 (Base 50)    
Moisture  
Dew Point 64 °F    
Average Humidity 71    
Maximum Humidity 88    
Minimum Humidity 51    
Precipitation  
Precipitation 0.00 in - - ()
Sea Level Pressure  
Sea Level Pressure 30.04 in    
Wind  
Wind Speed 4 mph (SSE)    
Max Wind Speed 12 mph    
Max Gust Speed 16 mph    
Visibility 10 miles    
Events      
Averages and records for this station are not official NWS values.
T = Trace of Precipitation, MM = Missing Value Source: NWS Daily Summary

Daily Weather History Graph

Daily Weather History Graph

Search for Another Location

Airport or City:

Astronomy

Sep. 17, 2019 Rise Set
Actual Time 6:48 AM CDT 7:13 PM CDT
Civil Twilight 6:19 AM CDT 7:42 PM CDT
Nautical Twilight 5:44 AM CDT 8:16 PM CDT
Astronomical Twilight 5:09 AM CDT 8:52 PM CDT
Moon 9:10 PM CDT (9/17) 9:58 AM CDT (9/17)
Length of Visible Light 13h 23m
Length of Day
12h 25m
Waning Gibbous, 89% of the Moon is Illuminated
Sep 17
Waning Gibbous
Sep 21
Last Quarter
Sep 28
New
Oct 5
First Quarter
Oct 13
Full

Hourly Weather History & Observations

Time (CDT) Temp. Heat Index Dew Point Humidity Pressure Visibility Wind Dir Wind Speed Gust Speed Precip Events Conditions
12:00 AM 69.8 °F - 64.4 °F 83% 30.05 in 10.0 mi SSE 3.5 mph - N/A   Clear
12:20 AM 71.6 °F - 66.2 °F 83% 30.05 in 10.0 mi Calm Calm - N/A   Clear
12:40 AM 69.8 °F - 64.4 °F 83% 30.05 in 10.0 mi SE 4.6 mph - N/A   Clear
1:20 AM 69.8 °F - 64.4 °F 83% 30.05 in 10.0 mi Calm Calm - N/A   Clear
1:40 AM 69.8 °F - 64.4 °F 83% 30.05 in 10.0 mi SE 3.5 mph - N/A   Clear
2:00 AM 69.8 °F - 64.4 °F 83% 30.06 in 10.0 mi Calm Calm - N/A   Clear
2:20 AM 69.8 °F - 64.4 °F 83% 30.06 in 10.0 mi Calm Calm - N/A   Clear
2:40 AM 69.8 °F - 64.4 °F 83% 30.05 in 10.0 mi SSE 3.5 mph - N/A   Clear
3:00 AM 69.8 °F - 64.4 °F 83% 30.06 in 10.0 mi Calm Calm - N/A   Clear
3:20 AM 69.8 °F - 64.4 °F 83% 30.06 in 10.0 mi SE 3.5 mph - N/A   Clear
3:40 AM 69.8 °F - 64.4 °F 83% 30.06 in 10.0 mi SE 4.6 mph - N/A   Clear
4:00 AM 69.8 °F - 64.4 °F 83% 30.06 in 10.0 mi SE 3.5 mph - N/A   Scattered Clouds
4:20 AM 69.8 °F - 64.4 °F 83% 30.07 in 10.0 mi SSE 3.5 mph - N/A   Overcast
4:40 AM 69.8 °F - 64.4 °F 83% 30.07 in 10.0 mi SSE 3.5 mph - N/A   Overcast
5:00 AM 69.8 °F - 64.4 °F 83% 30.07 in 10.0 mi SSE 4.6 mph - N/A   Scattered Clouds
5:20 AM 69.8 °F - 66.2 °F 88% 30.07 in 10.0 mi SSE 3.5 mph - N/A   Clear
5:40 AM 69.8 °F - 66.2 °F 88% 30.08 in 10.0 mi Calm Calm - N/A   Clear
6:00 AM 69.8 °F - 66.2 °F 88% 30.08 in 10.0 mi SE 3.5 mph - N/A   Clear
6:20 AM 69.8 °F - 64.4 °F 83% 30.08 in 10.0 mi SSE 3.5 mph - N/A   Clear
6:40 AM 69.8 °F - 64.4 °F 83% 30.09 in 10.0 mi Calm Calm - N/A   Scattered Clouds
7:00 AM 69.8 °F - 64.4 °F 83% 30.09 in 10.0 mi SE 3.5 mph - N/A   Scattered Clouds
7:20 AM 69.8 °F - 64.4 °F 83% 30.09 in 10.0 mi SSE 4.6 mph - N/A   Clear
7:40 AM 69.8 °F - 64.4 °F 83% 30.10 in 10.0 mi SE 3.5 mph - N/A   Clear
8:20 AM 69.8 °F - 64.4 °F 83% 30.09 in 10.0 mi SE 4.6 mph - N/A   Clear
8:40 AM 71.6 °F - 64.4 °F 78% 30.10 in 10.0 mi SE 3.5 mph - N/A   Clear
9:20 AM 75.2 °F - 62.6 °F 65% 30.09 in 10.0 mi SSE 6.9 mph - N/A   Clear
9:40 AM 75.2 °F - 60.8 °F 61% 30.09 in 10.0 mi SSE 4.6 mph - N/A   Clear
10:01 AM 77.0 °F - 60.8 °F 57% 30.08 in 10.0 mi SE 11.5 mph - N/A   Clear
10:20 AM 77.0 °F - 59.0 °F 54% 30.08 in 10.0 mi South 5.8 mph - N/A   Clear
10:40 AM 78.8 °F - 60.8 °F 54% 30.07 in 10.0 mi SSE 5.8 mph - N/A   Clear
11:00 AM 78.8 °F - 60.8 °F 54% 30.07 in 10.0 mi SSE 8.1 mph - N/A   Clear
11:20 AM 78.8 °F - 60.8 °F 54% 30.07 in 10.0 mi SSE 5.8 mph - N/A   Clear
11:40 AM 80.6 °F 81.5 °F 60.8 °F 51% 30.07 in 10.0 mi South 3.5 mph - N/A   Clear
12:00 PM 82.4 °F 83.9 °F 64.4 °F 54% 30.06 in 10.0 mi SSE 10.4 mph - N/A   Clear
12:20 PM 82.4 °F 83.9 °F 64.4 °F 54% 30.05 in 10.0 mi South 3.5 mph - N/A   Clear
12:40 PM 80.6 °F 82.3 °F 64.4 °F 58% 30.05 in 10.0 mi SSE 8.1 mph - N/A   Clear
1:02 PM 82.4 °F 83.9 °F 64.4 °F 54% 30.05 in 10.0 mi South 4.6 mph - N/A   Clear
1:20 PM 82.4 °F 83.9 °F 64.4 °F 54% 30.04 in 10.0 mi SSE 8.1 mph - N/A   Clear
1:40 PM 82.4 °F 84.6 °F 66.2 °F 58% 30.03 in 10.0 mi SSE 9.2 mph - N/A   Clear
2:00 PM 80.6 °F 82.7 °F 66.2 °F 61% 30.02 in 10.0 mi SSE 8.1 mph - N/A   Clear
2:20 PM 82.4 °F 84.6 °F 66.2 °F 58% 30.02 in 10.0 mi SSE 6.9 mph - N/A   Clear
2:40 PM 82.4 °F 84.6 °F 66.2 °F 58% 30.02 in 10.0 mi South 3.5 mph - N/A   Clear
3:00 PM 82.4 °F 84.6 °F 66.2 °F 58% 30.01 in 10.0 mi South 8.1 mph - N/A   Clear
3:20 PM 82.4 °F 84.6 °F 66.2 °F 58% 30.00 in 10.0 mi South 5.8 mph - N/A   Clear
3:40 PM 84.2 °F 86.6 °F 66.2 °F 55% 30.00 in 10.0 mi SSW 4.6 mph - N/A   Clear
4:00 PM 82.4 °F 84.6 °F 66.2 °F 58% 30.00 in 10.0 mi SSW 5.8 mph - N/A   Clear
4:20 PM 82.4 °F 84.6 °F 66.2 °F 58% 30.00 in 10.0 mi South 4.6 mph - N/A   Clear
4:40 PM 82.4 °F 84.6 °F 66.2 °F 58% 29.99 in 10.0 mi South 4.6 mph - N/A   Clear
5:00 PM 82.4 °F 84.6 °F 66.2 °F 58% 29.99 in 10.0 mi SSE 6.9 mph 16.1 mph N/A   Clear
5:20 PM 82.4 °F 84.6 °F 66.2 °F 58% 29.99 in 10.0 mi SSE 8.1 mph - N/A   Clear
5:40 PM 82.4 °F 85.4 °F 68.0 °F 62% 29.99 in 10.0 mi SSE 6.9 mph - N/A   Clear
6:00 PM 80.6 °F 82.7 °F 66.2 °F 61% 29.99 in 10.0 mi SSE 6.9 mph - N/A   Clear
6:21 PM 78.8 °F - 66.2 °F 65% 29.99 in 10.0 mi SSE 8.1 mph - N/A   Clear
6:41 PM 77.0 °F - 64.4 °F 65% 29.99 in 10.0 mi SSE 8.1 mph - N/A   Clear
7:01 PM 77.0 °F - 64.4 °F 65% 29.99 in 10.0 mi SSE 8.1 mph - N/A   Clear
7:21 PM 75.2 °F - 64.4 °F 69% 29.99 in 10.0 mi SSE 6.9 mph - N/A   Clear
7:41 PM 75.2 °F - 64.4 °F 69% 29.99 in 10.0 mi SSE 6.9 mph - N/A   Clear
8:01 PM 75.2 °F - 64.4 °F 69% 30.00 in 10.0 mi SE 6.9 mph - N/A   Clear
8:21 PM 73.4 °F - 64.4 °F 73% 30.01 in 10.0 mi SSE 6.9 mph - N/A   Clear
8:42 PM 71.6 °F - 64.4 °F 78% 30.01 in 10.0 mi SSE 5.8 mph - N/A   Clear
9:01 PM 71.6 °F - 64.4 °F 78% 30.01 in 10.0 mi SE 8.1 mph - N/A   Clear
9:21 PM 71.6 °F - 64.4 °F 78% 30.01 in 10.0 mi SSE 4.6 mph - N/A   Clear
9:41 PM 69.8 °F - 64.4 °F 83% 30.01 in 10.0 mi SE 5.8 mph - N/A   Clear
10:03 PM 69.8 °F - 62.6 °F 78% 30.01 in 10.0 mi SE 6.9 mph - N/A   Clear
10:21 PM 69.8 °F - 64.4 °F 83% 30.01 in 10.0 mi SE 8.1 mph - N/A   Clear
10:41 PM 69.8 °F - 64.4 °F 83% 30.01 in 10.0 mi SSE 3.5 mph - N/A   Clear
11:01 PM 69.8 °F - 64.4 °F 83% 30.01 in 10.0 mi SSE 3.5 mph - N/A   Clear
11:21 PM 69.8 °F - 64.4 °F 83% 30.01 in 10.0 mi Calm Calm - N/A   Clear
11:41 PM 69.8 °F - 64.4 °F 83% 30.00 in 10.0 mi SSE 3.5 mph - N/A   Clear